Terug naar catalogus

DMSP 5D-2 F13 DEB

ActiefSSO
NORAD 42300·DEBRIS·🇺🇸 United States

Gelanceerd Mar 24, 1995 vanaf Vandenberg Space Force Base

Loading…

Volgende Passages (komende 24 uur)

TLE

VersSource: Space-Track

Epoch: Sep 14, 2026, 14:01 UTC

1 42300U 95015HS  26257.58448558  .00003247  00000-0  90918-3 0  9994
2 42300  98.5900 303.8581 0023579  21.4992 338.7185 14.46621262514057

Volg DMSP 5D-2 F13 DEB in realtime met AllMySat

Download on the App Store